Sheboygan, WI

10:10 AM CDT on September 26, 2017 (GMT -0500)
Sheboygan County Memorial

Weather History for KSBM - February, 2012

Change the Weather History Date:

Friday, February 10, 2012

  Actual Average Record
Temperature  
Mean Temperature 19 °F -  
Max Temperature 30 °F 30 °F 52 °F (2009)
Min Temperature 7 °F 14 °F -13 °F (2011)
Degree Days  
Heating Degree Days 46    
Moisture  
Dew Point 13 °F    
Average Humidity 76    
Maximum Humidity 93    
Minimum Humidity 58    
Precipitation  
Precipitation 0.01 in - - ()
Sea Level Pressure  
Sea Level Pressure 30.03 in    
Wind  
Wind Speed 14 mph (NNW)    
Max Wind Speed 23 mph    
Max Gust Speed 36 mph    
Visibility 4 miles    
Events Fog , Snow    
Averages and records for this station are not official NWS values.
T = Trace of Precipitation, MM = Missing Value Source: NWS Daily Summary

Daily Weather History Graph

Daily Weather History Graph

Search for Another Location

Airport or City:

Trip Planner

Search our weather history database for the weather conditions in past years. The results will help you decide how hot, cold, wet, or windy it might be!

Date:

Astronomy

Feb. 10, 2012 Rise Set
Actual Time 6:57 AM CST 5:14 PM CST
Civil Twilight 6:27 AM CST 5:43 PM CST
Nautical Twilight 5:54 AM CST 6:17 PM CST
Astronomical Twilight 5:20 AM CST 6:51 PM CST
Moon 9:01 PM CST (2/10) 7:57 AM CST (2/10)
Length of Visible Light 11h 15m
Length of Day
10h 16m
Waning Gibbous, 90% of the Moon is Illuminated
Feb 10
Waning Gibbous
Feb 14
Last Quarter
Feb 21
New
Feb 29
First Quarter
Mar 8
Full

Hourly Weather History & Observations

Time (CST) Temp. Windchill Dew Point Humidity Pressure Visibility Wind Dir Wind Speed Gust Speed Precip Events Conditions
12:46 AM 28.4 °F 18.0 °F 19.4 °F 69% 29.95 in 10.0 mi SW 12.7 mph - N/A   Scattered Clouds
12:53 AM 28.0 °F 17.5 °F 19.9 °F 72% 29.98 in 10.0 mi SW 12.7 mph - N/A   Partly Cloudy
1:53 AM 28.0 °F 17.0 °F 21.0 °F 75% 29.96 in 10.0 mi SW 13.8 mph - N/A   Clear
2:53 AM 27.0 °F 17.3 °F 21.0 °F 78% 29.94 in 10.0 mi SSW 10.4 mph - N/A   Clear
3:53 AM 26.1 °F 17.6 °F 21.0 °F 81% 29.92 in 9.0 mi SW 8.1 mph - N/A   Clear
4:53 AM 28.0 °F 21.7 °F 23.0 °F 81% 29.91 in 8.0 mi WSW 5.8 mph - N/A   Overcast
5:53 AM 30.0 °F 23.2 °F 24.1 °F 79% 29.91 in 8.0 mi SW 6.9 mph - N/A   Overcast
6:53 AM 30.0 °F 23.2 °F 25.0 °F 82% 29.91 in 8.0 mi WSW 6.9 mph - N/A   Overcast
7:53 AM 30.0 °F 25.2 °F 26.1 °F 85% 29.92 in 2.5 mi West 4.6 mph - 0.00 in Snow Light Snow
8:03 AM 30.2 °F 26.7 °F 26.6 °F 86% 29.89 in 1.5 mi West 3.5 mph - 0.00 in Snow Light Snow
8:12 AM 30.2 °F 26.7 °F 26.6 °F 86% 29.90 in 1.0 mi West 3.5 mph - 0.00 in Snow Light Snow
8:30 AM 28.4 °F 15.8 °F 24.8 °F 86% 29.92 in 0.8 mi NNE 18.4 mph 21.9 mph 0.00 in Snow Light Snow
8:37 AM 26.6 °F 12.4 °F 23.0 °F 86% 29.92 in 0.2 mi NNE 21.9 mph 29.9 mph 0.00 in Fog , Snow Heavy Snow
8:46 AM 24.8 °F 11.5 °F 23.0 °F 93% 29.93 in 0.2 mi NNE 17.3 mph - 0.00 in Fog , Snow Heavy Snow
8:53 AM 24.1 °F 12.0 °F 21.9 °F 91% 29.97 in 0.2 mi North 13.8 mph 23.0 mph 0.01 in Fog , Snow Snow
9:21 AM 21.2 °F 6.8 °F 17.6 °F 86% 29.93 in 0.5 mi North 17.3 mph 24.2 mph 0.00 in Fog , Snow Snow
9:48 AM 21.2 °F 6.4 °F 17.6 °F 86% 29.94 in 1.2 mi NNE 18.4 mph 27.6 mph 0.00 in Snow Light Snow
9:53 AM 21.0 °F 6.6 °F 16.0 °F 81% 29.98 in 1.2 mi North 17.3 mph 28.8 mph 0.00 in Snow Light Snow
10:18 AM 19.4 °F 2.5 °F 15.8 °F 86% 29.96 in 0.8 mi NNE 23.0 mph 31.1 mph 0.00 in Snow Light Snow
10:26 AM 19.4 °F 4.1 °F 15.8 °F 86% 29.96 in 1.0 mi North 18.4 mph 29.9 mph 0.00 in Snow Light Snow
10:53 AM 19.0 °F 4.5 °F 14.0 °F 81% 30.01 in 1.5 mi North 16.1 mph 27.6 mph 0.00 in Snow Light Snow
11:11 AM 17.6 °F 1.3 °F 12.2 °F 79% 29.97 in 0.5 mi North 19.6 mph 31.1 mph 0.00 in Snow Snow
11:24 AM 17.6 °F 0.9 °F 12.2 °F 79% 29.97 in 0.2 mi North 20.7 mph 31.1 mph 0.00 in Fog , Snow Heavy Snow
11:38 AM 17.6 °F 1.3 °F 12.2 °F 79% 29.98 in 0.5 mi North 19.6 mph 33.4 mph 0.00 in Snow Snow
11:53 AM 18.0 °F 2.2 °F 12.0 °F 78% 30.03 in 1.0 mi North 18.4 mph 29.9 mph 0.00 in Snow Light Snow
12:09 PM 17.6 °F 2.2 °F 10.4 °F 73% 29.99 in 0.8 mi North 17.3 mph 35.7 mph 0.00 in Snow Light Snow
12:17 PM 17.6 °F 1.7 °F 10.4 °F 73% 29.99 in 1.0 mi North 18.4 mph 31.1 mph 0.00 in Snow Light Snow
12:41 PM 17.6 °F 2.7 °F 12.2 °F 79% 30.00 in 0.5 mi North 16.1 mph 31.1 mph 0.00 in Snow Snow
12:53 PM 17.1 °F -0.3 °F 10.9 °F 77% 30.05 in 0.5 mi North 21.9 mph 29.9 mph 0.00 in Snow Snow
1:35 PM 15.8 °F -0.6 °F 10.4 °F 79% 30.02 in 0.5 mi North 18.4 mph 32.2 mph 0.00 in Snow Snow
1:50 PM 15.8 °F -0.6 °F 10.4 °F 79% 30.03 in 1.0 mi North 18.4 mph 27.6 mph 0.00 in Snow Light Snow
1:53 PM 16.0 °F -0.4 °F 10.0 °F 77% 30.07 in 0.8 mi North 18.4 mph 27.6 mph 0.00 in Snow Light Snow
2:21 PM 15.8 °F -0.2 °F 8.6 °F 73% 30.04 in 1.0 mi North 17.3 mph 29.9 mph 0.00 in Snow Light Snow
2:53 PM 14.0 °F -3.0 °F 8.1 °F 77% 30.09 in 1.2 mi North 18.4 mph 28.8 mph 0.00 in Snow Light Snow
3:28 PM 14.0 °F -0.8 °F 6.8 °F 73% 30.07 in 2.5 mi North 13.8 mph 33.4 mph 0.00 in Snow Light Snow
3:45 PM 14.0 °F -2.5 °F 6.8 °F 73% 30.08 in 3.0 mi North 17.3 mph 26.5 mph 0.00 in Snow Light Snow
3:53 PM 15.1 °F -0.6 °F 5.0 °F 64% 30.13 in 8.0 mi North 16.1 mph 26.5 mph 0.00 in   Overcast
4:53 PM 14.0 °F -1.4 °F 3.9 °F 64% 30.15 in 10.0 mi North 15.0 mph 25.3 mph N/A   Overcast
5:53 PM 15.1 °F -1.1 °F 3.0 °F 59% 30.17 in 10.0 mi North 17.3 mph 24.2 mph N/A   Overcast
6:53 PM 14.0 °F -3.4 °F 3.0 °F 62% 30.19 in 10.0 mi North 19.6 mph 29.9 mph N/A   Overcast
7:53 PM 10.9 °F -2.6 °F 1.0 °F 64% 30.22 in 10.0 mi North 10.4 mph - N/A   Scattered Clouds
8:53 PM 10.0 °F -2.9 °F -0.9 °F 61% 30.25 in 10.0 mi North 9.2 mph - N/A   Clear
9:53 PM 10.0 °F -4.5 °F -2.0 °F 58% 30.27 in 10.0 mi NNW 11.5 mph - N/A   Clear
10:53 PM 8.1 °F -5.3 °F -2.0 °F 64% 30.28 in 10.0 mi NW 9.2 mph - N/A   Clear
11:53 PM 7.0 °F -5.7 °F -2.9 °F 64% 30.29 in 10.0 mi NW 8.1 mph - N/A   Clear